{"data":{"norad_id":53165,"epoch":"2026-05-25T03:03:50.713056Z","epoch_age_seconds":57341,"freshness":"FRESH","line1":"1 53165U 22083AK  26145.12767029 -.00002602  00000+0 -14542-3 0  9997","line2":"2 53165  53.2124 180.9772 0001108  90.3144 269.7975 15.08847184212909","mean_motion":15.08847184,"eccentricity":0.0001108,"inclination_deg":53.2124,"raan_deg":180.9772,"arg_perigee_deg":90.3144,"mean_anomaly_deg":269.7975,"bstar":-0.00014542,"rev_number":21290,"period_min":95.437100275623,"perigee_km":538.95493172314,"apogee_km":540.48792915133,"semimajor_km":6917.8584304372,"source":"CELESTRAK","updated_at":"2026-05-25T13:38:17.322643Z"}}